Flag for U.S.A. Weather past 2 weeks in Montpelier, Vermont, U.S.A.

Now
23 °F

Overcast.


Feels Like: 23 °F
Forecast: 14 / 33 °F
Wind: No wind

Location: Knapp State Airport

Current Time: Dec 22, 2014 at 4:27:04 AM

Latest Report: Dec 22, 2014 at 3:51 AM


Visibility: 7 mi

Pressure: 30.42 "Hg

Humidity: 92%

Dew point: 21 °F

Location of MontpelierLocation

Historic Weather in Montpelier — Graph

°F

Montpelier temperature yesterday

Maximum temperature yesterday: 24 °F (at 1:51 PM)
Minimum temperature yesterday: 12 °F (at 12:51 AM)
Average temperature yesterday: 19 °F

Past Weeks' High & Low Weather Summary

 TemperatureHumidityPressure
High36 °F (Dec 17, 8:51 PM)100% (Dec 9, 5:51 PM)30.84 "Hg (Dec 9, 5:51 PM)
Low-4 °F (Dec 8, 4:51 AM)51% (Dec 7, 1:51 PM)29.48 "Hg (Dec 11, 12:03 AM)
Average25 °F89%30.09 "Hg
* Reported Dec 7 3:51 AM — Dec 22 3:01 AM, Montpelier, Weather by CustomWeather, © 2014

Note: Actual official high and low records may vary slightly from our data, if they occured in-between our weather recording intervals... More about our weather records

Advertising

Montpelier weather history for previous 24 hours

 ConditionsComfort  
Time TempWeatherWind HumidityBarometerVisibility
3:01 AM
Dec 22
22 °FOvercast.No wind92%30.37 "Hg7 mi
1:51 AM23 °FMostly cloudy.No wind92%30.42 "Hg7 mi
12:51 AM23 °FOvercast.No wind88%30.42 "Hg7 mi
11:51 PM
Dec 21
23 °FOvercast.No wind88%30.43 "Hg8 mi
10:51 PM23 °FOvercast.No wind88%30.43 "Hg8 mi
9:51 PM23 °FOvercast.No wind88%30.43 "Hg8 mi
8:51 PM24 °FMostly cloudy.No wind84%30.42 "Hg8 mi
7:51 PM23 °FOvercast.No wind88%30.42 "Hg8 mi
6:51 PM24 °FOvercast.No wind84%30.41 "Hg9 mi
5:51 PM24 °FOvercast.No wind81%30.40 "Hg10 mi
4:51 PM24 °FOvercast.No wind81%30.39 "Hg10 mi
3:51 PM24 °FOvercast.No wind81%30.38 "Hg9 mi
2:51 PM24 °FOvercast.3 mph77%30.38 "Hg9 mi
1:51 PM24 °FOvercast.3 mph81%30.37 "Hg8 mi
12:51 PM22 °FOvercast.3 mph85%30.38 "Hg7 mi
11:51 AM21 °FOvercast.No wind85%30.38 "Hg7 mi
11:02 AM20 °FLight snow. Ice fog.No wind89%30.33 "Hg3 mi
10:51 AM20 °FLight snow. Ice fog.No wind89%30.40 "Hg2 mi
9:51 AM17 °FIce fog.No wind92%30.41 "Hg4 mi
8:51 AM16 °FIce fog.No wind87%30.40 "Hg6 mi
7:51 AM15 °FIce fog.No wind91%30.40 "Hg5 mi
6:51 AM15 °FOvercast.No wind87%30.39 "Hg8 mi
5:51 AM14 °FOvercast.No wind92%30.38 "Hg8 mi
4:51 AM14 °FOvercast.No wind87%30.37 "Hg8 mi
Weather by CustomWeather, © 2014

See weather overviewHow to use our weather pages